,,PA_Meas_PMT16A,,PR_Meas_QMR101_102,,RH_Meas_QMH101,,SR_Meas_QMS101,,TA_Meas_QMH101,,GenWind,,GenWind,
time,status,PA,status,PR,status,RH,status,SR,status,TA,status,DirAvg,status,SpdAvg,
2010-04-08, 00:00:04,VALID,920.117,VALID,0,VALID,96.4819,VALID,0,VALID,20.8324,VALID,100,VALID,1.24961,
2010-04-08, 00:01:04,VALID,920.109,VALID,0,VALID,96.3981,VALID,0,VALID,20.834,VALID,125,VALID,1.85508,
2010-04-08, 00:02:04,VALID,920.118,VALID,0,VALID,96.3447,VALID,0.107441,VALID,20.8145,VALID,126,VALID,1.71016,
2010-04-08, 00:03:04,VALID,920.135,VALID,0,VALID,96.3295,VALID,0,VALID,20.7739,VALID,116,VALID,2.025,
2010-04-08, 00:04:04,VALID,920.11,VALID,0,VALID,96.2837,VALID,0.107441,VALID,20.7934,VALID,99,VALID,1.30234,
2010-04-08, 00:05:04,VALID,920.082,VALID,0,VALID,96.2304,VALID,0.107441,VALID,20.7918,VALID,86,VALID,1.79141,
2010-04-08, 00:06:04,VALID,920.112,VALID,0,VALID,96.1694,VALID,0,VALID,20.8324,VALID,112,VALID,2.05234,
2010-04-08, 00:07:04,VALID,920.077,VALID,0,VALID,96.0779,VALID,0.107441,VALID,20.8519,VALID,112,VALID,1.69258,
2010-04-08, 00:08:04,VALID,920.058,VALID,0,VALID,96.0245,VALID,0.107441,VALID,20.8324,VALID,118,VALID,1.52773,
2010-04-08, 00:09:04,VALID,920.019,VALID,0,VALID,95.9788,VALID,0,VALID,20.8324,VALID,78,VALID,1.42383,
2010-04-08, 00:10:04,VALID,920.061,VALID,0,VALID,96.0169,VALID,0.107441,VALID,20.8129,VALID,89,VALID,1.06953,
2010-04-08, 00:11:04,VALID,920.041,VALID,0,VALID,96.0855,VALID,0.107441,VALID,20.8129,VALID,100,VALID,1.35391,
2010-04-08, 00:12:04,VALID,920.02,VALID,0,VALID,96.1694,VALID,0.107441,VALID,20.7739,VALID,119,VALID,1.0168,
2010-04-08, 00:13:04,VALID,920.018,VALID,0,VALID,96.2304,VALID,0.107441,VALID,20.7528,VALID,100,VALID,1.18828,
2010-04-08, 00:14:04,VALID,919.971,VALID,0,VALID,96.2914,VALID,0.107441,VALID,20.7544,VALID,119,VALID,0.835938,
2010-04-08, 00:15:04,VALID,919.985,VALID,0,VALID,96.36,VALID,0.107441,VALID,20.7544,VALID,127,VALID,1.88906,
2010-04-08, 00:16:04,VALID,919.988,VALID,0,VALID,96.3752,VALID,0.107441,VALID,20.7333,VALID,130,VALID,1.75,
2010-04-08, 00:17:04,VALID,919.965,VALID,0,VALID,96.3981,VALID,0.107441,VALID,20.7544,VALID,140,VALID,1.60742,
2010-04-08, 00:18:04,VALID,919.933,VALID,0,VALID,96.3981,VALID,0.107441,VALID,20.7739,VALID,119,VALID,1.39219,
2010-04-08, 00:19:04,VALID,919.9,VALID,0,VALID,96.4286,VALID,0.107441,VALID,20.7739,VALID,154,VALID,1.35195,
2010-04-08, 00:20:04,VALID,919.912,VALID,0,VALID,96.4286,VALID,0.107441,VALID,20.7739,VALID,140,VALID,1.32734,
2010-04-08, 00:21:04,VALID,919.902,VALID,0,VALID,96.4438,VALID,0,VALID,20.7739,VALID,131,VALID,2.13633,
2010-04-08, 00:22:04,VALID,919.871,VALID,0,VALID,96.4286,VALID,0.107441,VALID,20.7934,VALID,134,VALID,0.740625,
2010-04-08, 00:23:04,VALID,919.889,VALID,0,VALID,96.4286,VALID,0.107441,VALID,20.7918,VALID,135,VALID,1.78867,
2010-04-08, 00:24:04,VALID,919.86,VALID,0,VALID,96.3981,VALID,0,VALID,20.7934,VALID,145,VALID,1.46211,
2010-04-08, 00:25:04,VALID,919.823,VALID,0,VALID,96.3981,VALID,0,VALID,20.7934,VALID,153,VALID,0.973828,
2010-04-08, 00:26:04,VALID,919.848,VALID,0,VALID,96.4057,VALID,0,VALID,20.8145,VALID,150,VALID,1.26523,
2010-04-08, 00:27:04,VALID,919.806,VALID,0,VALID,96.3905,VALID,0,VALID,20.7934,VALID,141,VALID,1.30469,
2010-04-08, 00:28:04,VALID,919.82,VALID,0,VALID,96.36,VALID,0,VALID,20.8145,VALID,137,VALID,1.1168,
2010-04-08, 00:29:04,VALID,919.779,VALID,0,VALID,96.3752,VALID,0,VALID,20.795,VALID,132,VALID,1.57383,
2010-04-08, 00:30:04,VALID,919.773,VALID,0,VALID,96.3981,VALID,0,VALID,20.7755,VALID,147,VALID,1.25078,
2010-04-08, 00:31:04,VALID,919.762,VALID,0,VALID,96.421,VALID,0,VALID,20.7755,VALID,154,VALID,1.44648,
2010-04-08, 00:32:04,VALID,919.747,VALID,0,VALID,96.4819,VALID,0,VALID,20.7755,VALID,154,VALID,0.890234,
2010-04-08, 00:33:04,VALID,919.702,VALID,0,VALID,96.5201,VALID,0,VALID,20.7755,VALID,183,VALID,0.83125,
2010-04-08, 00:34:04,VALID,919.72,VALID,0,VALID,96.5506,VALID,0,VALID,20.7755,VALID,152,VALID,0.942578,
2010-04-08, 00:35:04,VALID,919.705,VALID,0.2,VALID,96.5887,VALID,0,VALID,20.756,VALID,170,VALID,0.884375,
2010-04-08, 00:36:04,VALID,919.719,VALID,0,VALID,96.6039,VALID,0,VALID,20.7755,VALID,176,VALID,1.28477,
2010-04-08, 00:37:04,VALID,919.689,VALID,0,VALID,96.642,VALID,0,VALID,20.7755,VALID,165,VALID,1.38867,
2010-04-08, 00:38:04,VALID,919.663,VALID,0,VALID,96.6497,VALID,0,VALID,20.7739,VALID,72,VALID,1.1582,
2010-04-08, 00:39:04,VALID,919.663,VALID,0,VALID,96.6649,VALID,0,VALID,20.795,VALID,116,VALID,2.17148,
2010-04-08, 00:40:04,VALID,919.633,VALID,0,VALID,96.6573,VALID,0,VALID,20.8129,VALID,142,VALID,1.56914,
2010-04-08, 00:41:04,VALID,919.66,VALID,0,VALID,96.5963,VALID,0,VALID,20.834,VALID,139,VALID,1.70586,
2010-04-08, 00:42:04,VALID,919.626,VALID,0,VALID,96.5734,VALID,0,VALID,20.834,VALID,121,VALID,1.4957,
2010-04-08, 00:43:04,VALID,919.593,VALID,0,VALID,96.5429,VALID,0,VALID,20.8535,VALID,140,VALID,1.73945,
2010-04-08, 00:44:04,VALID,919.597,VALID,0,VALID,96.5277,VALID,0,VALID,20.873,VALID,133,VALID,1.71133,
2010-04-08, 00:45:04,VALID,919.581,VALID,0,VALID,96.5353,VALID,0,VALID,20.8535,VALID,156,VALID,1.77461,
2010-04-08, 00:46:04,VALID,919.576,VALID,0,VALID,96.4972,VALID,0,VALID,20.873,VALID,139,VALID,1.58477,
2010-04-08, 00:47:04,VALID,919.559,VALID,0,VALID,96.4591,VALID,0,VALID,20.873,VALID,139,VALID,2.15586,
2010-04-08, 00:48:04,VALID,919.567,VALID,0,VALID,96.3676,VALID,0,VALID,20.9316,VALID,142,VALID,2.31211,
2010-04-08, 00:49:04,VALID,919.549,VALID,0,VALID,96.2304,VALID,0,VALID,20.9495,VALID,142,VALID,1.42344,
2010-04-08, 00:50:04,VALID,919.522,VALID,0,VALID,96.1389,VALID,0,VALID,20.9706,VALID,112,VALID,1.50156,
2010-04-08, 00:51:04,VALID,919.515,VALID,0,VALID,96.0398,VALID,0,VALID,20.9495,VALID,130,VALID,1.85195,
2010-04-08, 00:52:04,VALID,919.507,VALID,0,VALID,96.0398,VALID,0,VALID,20.93,VALID,146,VALID,1.25117,
2010-04-08, 00:53:04,VALID,919.483,VALID,0,VALID,96.116,VALID,0,VALID,20.9316,VALID,146,VALID,0.692187,
2010-04-08, 00:54:04,VALID,919.461,VALID,0,VALID,96.1465,VALID,0,VALID,20.93,VALID,148,VALID,1.39648,
2010-04-08, 00:55:04,VALID,919.49,VALID,0,VALID,96.1923,VALID,0.107441,VALID,20.9089,VALID,147,VALID,1.81758,
2010-04-08, 00:56:04,VALID,919.441,VALID,0,VALID,96.2151,VALID,0.107441,VALID,20.8894,VALID,179,VALID,1.82187,
2010-04-08, 00:57:04,VALID,919.472,VALID,0,VALID,96.2456,VALID,0.107441,VALID,20.8894,VALID,161,VALID,1.61211,
2010-04-08, 00:58:04,VALID,919.413,VALID,0,VALID,96.2761,VALID,0.107441,VALID,20.8894,VALID,183,VALID,1.67031,
2010-04-08, 00:59:04,VALID,919.381,VALID,0,VALID,96.2761,VALID,0.107441,VALID,20.8504,VALID,148,VALID,1.33906,
2010-04-08, 01:00:04,VALID,919.391,VALID,0,VALID,96.3219,VALID,0.107441,VALID,20.8309,VALID,128,VALID,1.50703,
2010-04-08, 01:01:04,VALID,919.376,VALID,0,VALID,96.3447,VALID,0.107441,VALID,20.8714,VALID,154,VALID,1.82148,
2010-04-08, 01:02:04,VALID,919.339,VALID,0,VALID,96.36,VALID,0.107441,VALID,20.8714,VALID,127,VALID,1.48008,
2010-04-08, 01:03:04,VALID,919.347,VALID,0,VALID,96.3752,VALID,0.107441,VALID,20.8504,VALID,127,VALID,0.531641,
2010-04-08, 01:04:04,VALID,919.308,VALID,0,VALID,96.3829,VALID,0.107441,VALID,20.8504,VALID,159,VALID,0.794141,
2010-04-08, 01:05:04,VALID,919.273,VALID,0,VALID,96.4057,VALID,0.107441,VALID,20.8519,VALID,138,VALID,0.808984,
2010-04-08, 01:06:04,VALID,919.261,VALID,0,VALID,96.4286,VALID,0.107441,VALID,20.8309,VALID,135,VALID,1.39531,
2010-04-08, 01:07:04,VALID,919.266,VALID,0,VALID,96.4591,VALID,0.107441,VALID,20.8519,VALID,172,VALID,1.33633,
2010-04-08, 01:08:04,VALID,919.216,VALID,0,VALID,96.4591,VALID,0.107441,VALID,20.8309,VALID,173,VALID,1.40664,
2010-04-08, 01:09:04,VALID,919.196,VALID,0,VALID,96.4515,VALID,0,VALID,20.834,VALID,175,VALID,0.971875,
2010-04-08, 01:10:04,VALID,919.173,VALID,0,VALID,96.4896,VALID,0,VALID,20.8129,VALID,173,VALID,1.2082,
2010-04-08, 01:11:04,VALID,919.191,VALID,0,VALID,96.4896,VALID,0,VALID,20.834,VALID,155,VALID,1.3707,
2010-04-08, 01:12:04,VALID,919.166,VALID,0,VALID,96.5048,VALID,0,VALID,20.8145,VALID,159,VALID,0.734375,
2010-04-08, 01:13:04,VALID,919.176,VALID,0,VALID,96.5124,VALID,0,VALID,20.795,VALID,147,VALID,1.28008,
2010-04-08, 01:14:04,VALID,919.119,VALID,0,VALID,96.5429,VALID,0,VALID,20.8145,VALID,177,VALID,1.13203,
2010-04-08, 01:15:04,VALID,919.134,VALID,0,VALID,96.5429,VALID,0,VALID,20.795,VALID,121,VALID,1.20938,
2010-04-08, 01:16:04,VALID,919.104,VALID,0,VALID,96.5811,VALID,0,VALID,20.7755,VALID,185,VALID,1.95547,
2010-04-08, 01:17:04,VALID,919.094,VALID,0,VALID,96.5887,VALID,0,VALID,20.795,VALID,187,VALID,1.38789,
2010-04-08, 01:18:04,VALID,919.104,VALID,0,VALID,96.5887,VALID,0,VALID,20.7966,VALID,161,VALID,2.26563,
2010-04-08, 01:19:04,VALID,919.099,VALID,0,VALID,96.6115,VALID,0,VALID,20.7755,VALID,178,VALID,0.670313,
2010-04-08, 01:20:04,VALID,919.08,VALID,0,VALID,96.6115,VALID,0,VALID,20.7755,VALID,167,VALID,0.914453,
2010-04-08, 01:21:04,VALID,919.103,VALID,0,VALID,96.6344,VALID,0,VALID,20.756,VALID,168,VALID,0.467187,
2010-04-08, 01:22:04,VALID,919.072,VALID,0,VALID,96.6649,VALID,0,VALID,20.7349,VALID,157,VALID,1.54023,
2010-04-08, 01:23:04,VALID,919.096,VALID,0,VALID,96.6573,VALID,0,VALID,20.756,VALID,171,VALID,1.50312,
2010-04-08, 01:24:04,VALID,919.071,VALID,0,VALID,96.6725,VALID,0,VALID,20.7365,VALID,175,VALID,1.99609,
2010-04-08, 01:25:04,VALID,919.051,VALID,0,VALID,96.6649,VALID,0,VALID,20.7365,VALID,183,VALID,1.68047,
2010-04-08, 01:26:04,VALID,919.069,VALID,0,VALID,96.6573,VALID,0,VALID,20.7365,VALID,163,VALID,1.51094,
2010-04-08, 01:27:04,VALID,919.075,VALID,0,VALID,96.6573,VALID,0,VALID,20.7365,VALID,179,VALID,1.63711,
2010-04-08, 01:28:04,VALID,919.05,VALID,0,VALID,96.642,VALID,0,VALID,20.717,VALID,129,VALID,2.27227,
2010-04-08, 01:29:04,VALID,919.036,VALID,0,VALID,96.6649,VALID,0,VALID,20.7365,VALID,162,VALID,1.99297,
2010-04-08, 01:30:04,VALID,918.977,VALID,0,VALID,96.6649,VALID,0,VALID,20.7154,VALID,147,VALID,2.19297,
2010-04-08, 01:31:04,VALID,918.992,VALID,0,VALID,96.6268,VALID,0,VALID,20.7365,VALID,117,VALID,1.28828,
2010-04-08, 01:32:04,VALID,918.984,VALID,0,VALID,96.6039,VALID,0,VALID,20.6959,VALID,163,VALID,1.93594,
2010-04-08, 01:33:04,VALID,918.975,VALID,0,VALID,96.5658,VALID,0,VALID,20.717,VALID,150,VALID,1.70508,
2010-04-08, 01:34:04,VALID,918.922,VALID,0,VALID,96.5658,VALID,0,VALID,20.6975,VALID,135,VALID,1.46016,
2010-04-08, 01:35:04,VALID,918.908,VALID,0,VALID,96.5582,VALID,0,VALID,20.717,VALID,165,VALID,1.72656,
2010-04-08, 01:36:04,VALID,918.915,VALID,0,VALID,96.5658,VALID,0,VALID,20.6975,VALID,174,VALID,1.25625,
2010-04-08, 01:37:04,VALID,918.911,VALID,0,VALID,96.5506,VALID,0,VALID,20.6975,VALID,163,VALID,1.24141,
2010-04-08, 01:38:04,VALID,918.9,VALID,0,VALID,96.5429,VALID,0,VALID,20.678,VALID,175,VALID,1.49844,
2010-04-08, 01:39:04,VALID,918.906,VALID,0,VALID,96.5582,VALID,0,VALID,20.678,VALID,173,VALID,0.855078,
2010-04-08, 01:40:04,VALID,918.864,VALID,0,VALID,96.5734,VALID,0,VALID,20.678,VALID,143,VALID,1.28789,
2010-04-08, 01:41:04,VALID,918.871,VALID,0,VALID,96.5963,VALID,0,VALID,20.6374,VALID,131,VALID,0.781641,
2010-04-08, 01:42:04,VALID,918.896,VALID,0,VALID,96.5734,VALID,0,VALID,20.639,VALID,160,VALID,2.33828,
2010-04-08, 01:43:04,VALID,918.882,VALID,0,VALID,96.5963,VALID,0,VALID,20.6585,VALID,180,VALID,1.19414,
2010-04-08, 01:44:04,VALID,918.868,VALID,0,VALID,96.5887,VALID,0,VALID,20.678,VALID,155,VALID,1.20938,
2010-04-08, 01:45:04,VALID,918.856,VALID,0,VALID,96.5811,VALID,0,VALID,20.639,VALID,160,VALID,1.7582,
2010-04-08, 01:46:04,VALID,918.832,VALID,0,VALID,96.5658,VALID,0,VALID,20.639,VALID,189,VALID,1.30977,
2010-04-08, 01:47:04,VALID,918.789,VALID,0,VALID,96.5658,VALID,0,VALID,20.639,VALID,179,VALID,1.51523,
2010-04-08, 01:48:04,VALID,918.779,VALID,0,VALID,96.5734,VALID,0,VALID,20.639,VALID,173,VALID,1.16289,
2010-04-08, 01:49:04,VALID,918.787,VALID,0,VALID,96.5582,VALID,0,VALID,20.6194,VALID,156,VALID,1.60117,
2010-04-08, 01:50:04,VALID,918.758,VALID,0,VALID,96.5734,VALID,0,VALID,20.6194,VALID,162,VALID,2.38711,
2010-04-08, 01:51:04,VALID,918.759,VALID,0,VALID,96.5734,VALID,0,VALID,20.639,VALID,150,VALID,1.09609,
2010-04-08, 01:52:04,VALID,918.748,VALID,0,VALID,96.5658,VALID,0,VALID,20.5999,VALID,147,VALID,1.43281,
2010-04-08, 01:53:04,VALID,918.724,VALID,0,VALID,96.5658,VALID,0,VALID,20.6194,VALID,139,VALID,1.28672,
2010-04-08, 01:54:04,VALID,918.74,VALID,0,VALID,96.5811,VALID,0,VALID,20.5999,VALID,167,VALID,1.04766,
2010-04-08, 01:55:04,VALID,918.71,VALID,0,VALID,96.5963,VALID,0,VALID,20.5999,VALID,118,VALID,0.935547,
2010-04-08, 01:56:04,VALID,918.707,VALID,0,VALID,96.6039,VALID,0,VALID,20.6015,VALID,171,VALID,1.51445,
2010-04-08, 01:57:04,VALID,918.665,VALID,0,VALID,96.6115,VALID,0,VALID,20.5804,VALID,136,VALID,2.10586,
2010-04-08, 01:58:04,VALID,918.702,VALID,0,VALID,96.6115,VALID,0,VALID,20.5804,VALID,157,VALID,1.7332,
2010-04-08, 01:59:04,VALID,918.661,VALID,0,VALID,96.6115,VALID,0,VALID,20.5609,VALID,168,VALID,1.82852,
2010-04-08, 02:00:04,VALID,918.643,VALID,0,VALID,96.5963,VALID,0,VALID,20.5804,VALID,162,VALID,1.94062,
2010-04-08, 02:01:04,VALID,918.652,VALID,0,VALID,96.5887,VALID,0,VALID,20.5804,VALID,163,VALID,1.74102,
2010-04-08, 02:02:04,VALID,918.635,VALID,0,VALID,96.5811,VALID,0,VALID,20.5804,VALID,131,VALID,1.75625,
2010-04-08, 02:03:04,VALID,918.63,VALID,0,VALID,96.5506,VALID,0,VALID,20.5609,VALID,132,VALID,1.10938,
2010-04-08, 02:04:04,VALID,918.623,VALID,0,VALID,96.5429,VALID,0,VALID,20.5609,VALID,161,VALID,1.11445,
2010-04-08, 02:05:04,VALID,918.617,VALID,0,VALID,96.5353,VALID,0,VALID,20.5609,VALID,133,VALID,1.20586,
2010-04-08, 02:06:04,VALID,918.568,VALID,0,VALID,96.5429,VALID,0,VALID,20.5414,VALID,129,VALID,1.7707,
2010-04-08, 02:07:04,VALID,918.584,VALID,0,VALID,96.5429,VALID,0,VALID,20.5414,VALID,147,VALID,1.80742,
2010-04-08, 02:08:04,VALID,918.567,VALID,0,VALID,96.5429,VALID,0,VALID,20.5414,VALID,140,VALID,1.28672,
2010-04-08, 02:09:04,VALID,918.585,VALID,0,VALID,96.5429,VALID,0.107441,VALID,20.5399,VALID,137,VALID,1.10156,
2010-04-08, 02:10:04,VALID,918.527,VALID,0,VALID,96.5429,VALID,0.107441,VALID,20.5204,VALID,131,VALID,1.17578,
2010-04-08, 02:11:04,VALID,918.531,VALID,0,VALID,96.5353,VALID,0,VALID,20.5399,VALID,99,VALID,1.20703,
2010-04-08, 02:12:04,VALID,918.503,VALID,0,VALID,96.5582,VALID,0.107441,VALID,20.5204,VALID,123,VALID,0.989062,
2010-04-08, 02:13:04,VALID,918.512,VALID,0,VALID,96.5658,VALID,0,VALID,20.5009,VALID,105,VALID,1.41055,
2010-04-08, 02:14:04,VALID,918.506,VALID,0,VALID,96.5658,VALID,0.107441,VALID,20.5009,VALID,141,VALID,1.03242,
2010-04-08, 02:15:04,VALID,918.512,VALID,0,VALID,96.5734,VALID,0.107441,VALID,20.5399,VALID,111,VALID,1.50195,
2010-04-08, 02:16:04,VALID,918.492,VALID,0,VALID,96.5201,VALID,0.107441,VALID,20.5399,VALID,104,VALID,1.02422,
2010-04-08, 02:17:04,VALID,918.487,VALID,0,VALID,96.5048,VALID,0.107441,VALID,20.5188,VALID,104,VALID,0.811328,
2010-04-08, 02:18:04,VALID,918.468,VALID,0,VALID,96.5124,VALID,0.107441,VALID,20.5399,VALID,104,VALID,0.309766,
2010-04-08, 02:19:04,VALID,918.497,VALID,0,VALID,96.4972,VALID,0,VALID,20.5414,VALID,105,VALID,1.04531,
2010-04-08, 02:20:04,VALID,918.483,VALID,0,VALID,96.4515,VALID,0.107441,VALID,20.5399,VALID,134,VALID,1.70938,
2010-04-08, 02:21:04,VALID,918.483,VALID,0,VALID,96.4591,VALID,0.107441,VALID,20.5789,VALID,145,VALID,0.839063,
2010-04-08, 02:22:04,VALID,918.488,VALID,0,VALID,96.421,VALID,0.107441,VALID,20.5594,VALID,160,VALID,1.12109,
2010-04-08, 02:23:04,VALID,918.501,VALID,0,VALID,96.3752,VALID,0,VALID,20.5594,VALID,160,VALID,1.00117,
2010-04-08, 02:24:04,VALID,918.517,VALID,0,VALID,96.3752,VALID,0.107441,VALID,20.5594,VALID,106,VALID,0.948438,
2010-04-08, 02:25:04,VALID,918.506,VALID,0,VALID,96.3524,VALID,0.107441,VALID,20.5399,VALID,105,VALID,1.11016,
2010-04-08, 02:26:04,VALID,918.494,VALID,0,VALID,96.3447,VALID,0.107441,VALID,20.5399,VALID,154,VALID,0.801562,
2010-04-08, 02:27:04,VALID,918.497,VALID,0,VALID,96.3524,VALID,0.107441,VALID,20.5204,VALID,136,VALID,0.971875,
2010-04-08, 02:28:04,VALID,918.499,VALID,0,VALID,96.3829,VALID,0.107441,VALID,20.5204,VALID,123,VALID,0.667969,
2010-04-08, 02:29:04,VALID,918.483,VALID,0,VALID,96.3981,VALID,0.107441,VALID,20.5204,VALID,123,VALID,1.13945,
2010-04-08, 02:30:04,VALID,918.504,VALID,0,VALID,96.4057,VALID,0.107441,VALID,20.4993,VALID,123,VALID,0.750781,
2010-04-08, 02:31:04,VALID,918.481,VALID,0,VALID,96.4057,VALID,0.107441,VALID,20.5204,VALID,123,VALID,0.804297,
2010-04-08, 02:32:04,VALID,918.495,VALID,0,VALID,96.421,VALID,0,VALID,20.5009,VALID,123,VALID,0.740234,
2010-04-08, 02:33:04,VALID,918.485,VALID,0,VALID,96.4515,VALID,0.107441,VALID,20.5009,VALID,123,VALID,0.963672,
2010-04-08, 02:34:04,VALID,918.488,VALID,0,VALID,96.4515,VALID,0.107441,VALID,20.4813,VALID,123,VALID,0.635156,
2010-04-08, 02:35:04,VALID,918.523,VALID,0,VALID,96.4591,VALID,0.107441,VALID,20.4603,VALID,123,VALID,0.869922,
2010-04-08, 02:36:04,VALID,918.522,VALID,0,VALID,96.4819,VALID,0,VALID,20.4813,VALID,123,VALID,0.569531,
2010-04-08, 02:37:04,VALID,918.511,VALID,0,VALID,96.4896,VALID,0.107441,VALID,20.4603,VALID,123,VALID,0.651953,
2010-04-08, 02:38:04,VALID,918.505,VALID,0,VALID,96.5048,VALID,0.107441,VALID,20.4813,VALID,123,VALID,0.864453,
2010-04-08, 02:39:04,VALID,918.499,VALID,0,VALID,96.5124,VALID,0.107441,VALID,20.4618,VALID,123,VALID,0.444922,
2010-04-08, 02:40:04,VALID,918.504,VALID,0,VALID,96.5506,VALID,0,VALID,20.4813,VALID,123,VALID,0.514063,
2010-04-08, 02:41:04,VALID,918.515,VALID,0,VALID,96.5429,VALID,0,VALID,20.4618,VALID,123,VALID,1.03555,
2010-04-08, 02:42:04,VALID,918.528,VALID,0,VALID,96.5582,VALID,0.107441,VALID,20.4618,VALID,123,VALID,0.771484,
2010-04-08, 02:43:04,VALID,918.512,VALID,0,VALID,96.5811,VALID,0,VALID,20.4423,VALID,123,VALID,1.04609,
2010-04-08, 02:44:04,VALID,918.532,VALID,0,VALID,96.6115,VALID,0.107441,VALID,20.4423,VALID,123,VALID,1.06289,
2010-04-08, 02:45:04,VALID,918.519,VALID,0,VALID,96.5811,VALID,0,VALID,20.4439,VALID,133,VALID,1.28906,
2010-04-08, 02:46:04,VALID,918.525,VALID,0,VALID,96.6115,VALID,0.107441,VALID,20.4228,VALID,133,VALID,1.12266,
2010-04-08, 02:47:04,VALID,918.488,VALID,0,VALID,96.5963,VALID,0.107441,VALID,20.4228,VALID,133,VALID,1.09258,
2010-04-08, 02:48:04,VALID,918.496,VALID,0,VALID,96.5963,VALID,0.107441,VALID,20.4228,VALID,133,VALID,1.10664,
2010-04-08, 02:49:04,VALID,918.491,VALID,0,VALID,96.5963,VALID,0,VALID,20.4228,VALID,134,VALID,0.964844,
2010-04-08, 02:50:04,VALID,918.486,VALID,0,VALID,96.5887,VALID,0.107441,VALID,20.4033,VALID,134,VALID,1.20313,
2010-04-08, 02:51:04,VALID,918.518,VALID,0,VALID,96.5887,VALID,0.107441,VALID,20.4033,VALID,134,VALID,0.921484,
2010-04-08, 02:52:04,VALID,918.508,VALID,0,VALID,96.6192,VALID,0.107441,VALID,20.3838,VALID,134,VALID,0.510938,
2010-04-08, 02:53:04,VALID,918.489,VALID,0,VALID,96.6192,VALID,0,VALID,20.3433,VALID,134,VALID,0.614844,
2010-04-08, 02:54:04,VALID,918.519,VALID,0,VALID,96.6268,VALID,0,VALID,20.3854,VALID,134,VALID,0.837109,
2010-04-08, 02:55:04,VALID,918.52,VALID,0,VALID,96.6039,VALID,0,VALID,20.3854,VALID,134,VALID,0.666797,
2010-04-08, 02:56:04,VALID,918.519,VALID,0,VALID,96.6344,VALID,0,VALID,20.3659,VALID,134,VALID,0.578906,
2010-04-08, 02:57:04,VALID,918.527,VALID,0,VALID,96.642,VALID,0,VALID,20.3659,VALID,134,VALID,0.400781,
2010-04-08, 02:58:04,VALID,918.522,VALID,0,VALID,96.6573,VALID,0,VALID,20.3464,VALID,134,VALID,0.365625,
2010-04-08, 02:59:04,VALID,918.523,VALID,0,VALID,96.6497,VALID,0,VALID,20.3464,VALID,134,VALID,0.387891,
2010-04-08, 03:00:04,VALID,918.515,VALID,0,VALID,96.6802,VALID,0,VALID,20.3464,VALID,134,VALID,0.113281,
2010-04-08, 03:01:04,VALID,918.532,VALID,0,VALID,96.703,VALID,0,VALID,20.3448,VALID,134,VALID,0.003125,
2010-04-08, 03:02:04,VALID,918.562,VALID,0,VALID,96.7107,VALID,0,VALID,20.3253,VALID,134,VALID,0,
2010-04-08, 03:03:04,VALID,918.567,VALID,0,VALID,96.7259,VALID,0,VALID,20.3269,VALID,134,VALID,0,
2010-04-08, 03:04:04,VALID,918.561,VALID,0,VALID,96.7716,VALID,0,VALID,20.3269,VALID,134,VALID,0,
2010-04-08, 03:05:04,VALID,918.584,VALID,0,VALID,96.7716,VALID,0,VALID,20.3074,VALID,134,VALID,0,
2010-04-08, 03:06:04,VALID,918.559,VALID,0,VALID,96.7945,VALID,0,VALID,20.3269,VALID,134,VALID,0,
2010-04-08, 03:07:04,VALID,918.552,VALID,0,VALID,96.8174,VALID,0,VALID,20.3074,VALID,134,VALID,0,
2010-04-08, 03:08:04,VALID,918.534,VALID,0,VALID,96.8631,VALID,0,VALID,20.3269,VALID,134,VALID,0.117188,
2010-04-08, 03:09:04,VALID,918.508,VALID,0,VALID,96.8936,VALID,0,VALID,20.3464,VALID,134,VALID,0.546484,
2010-04-08, 03:10:04,VALID,918.485,VALID,0,VALID,96.9089,VALID,0,VALID,20.3464,VALID,134,VALID,0.308203,
2010-04-08, 03:11:04,VALID,918.478,VALID,0,VALID,96.947,VALID,0,VALID,20.3854,VALID,134,VALID,0,
2010-04-08, 03:12:04,VALID,918.446,VALID,0,VALID,96.947,VALID,0,VALID,20.3659,VALID,134,VALID,0,
2010-04-08, 03:13:04,VALID,918.433,VALID,0,VALID,96.9394,VALID,0,VALID,20.3659,VALID,134,VALID,0.580078,
2010-04-08, 03:14:04,VALID,918.384,VALID,0,VALID,96.8784,VALID,0,VALID,20.3269,VALID,134,VALID,0.757422,
2010-04-08, 03:15:04,VALID,918.376,VALID,0,VALID,96.8936,VALID,0,VALID,20.3074,VALID,134,VALID,0.704687,
2010-04-08, 03:16:04,VALID,918.356,VALID,0,VALID,96.947,VALID,0,VALID,20.3074,VALID,134,VALID,0.590234,
2010-04-08, 03:17:04,VALID,918.367,VALID,0,VALID,96.9698,VALID,0,VALID,20.2879,VALID,134,VALID,0.133594,
2010-04-08, 03:18:04,VALID,918.387,VALID,0,VALID,97.0003,VALID,0,VALID,20.3074,VALID,134,VALID,0.104297,
2010-04-08, 03:19:04,VALID,918.353,VALID,0,VALID,97.008,VALID,0,VALID,20.3074,VALID,134,VALID,0,
2010-04-08, 03:20:04,VALID,918.382,VALID,0,VALID,97.0156,VALID,0,VALID,20.3074,VALID,134,VALID,0,
2010-04-08, 03:21:04,VALID,918.363,VALID,0,VALID,97.0537,VALID,0,VALID,20.3074,VALID,134,VALID,0,
2010-04-08, 03:22:04,VALID,918.307,VALID,0,VALID,97.0385,VALID,0,VALID,20.2879,VALID,134,VALID,0.427734,
2010-04-08, 03:23:04,VALID,918.323,VALID,0,VALID,97.0613,VALID,0,VALID,20.3074,VALID,134,VALID,0.511719,
2010-04-08, 03:24:04,VALID,918.313,VALID,0,VALID,97.0918,VALID,0.107441,VALID,20.3058,VALID,134,VALID,0.0925781,
2010-04-08, 03:25:04,VALID,918.291,VALID,0,VALID,97.0842,VALID,0,VALID,20.3058,VALID,134,VALID,0,
2010-04-08, 03:26:04,VALID,918.279,VALID,0,VALID,97.0994,VALID,0.107441,VALID,20.3253,VALID,134,VALID,0.239453,
2010-04-08, 03:27:04,VALID,918.269,VALID,0,VALID,97.1147,VALID,0.107441,VALID,20.3448,VALID,134,VALID,0,
2010-04-08, 03:28:04,VALID,918.292,VALID,0,VALID,97.1071,VALID,0,VALID,20.3043,VALID,134,VALID,0,
2010-04-08, 03:29:04,VALID,918.307,VALID,0,VALID,97.1071,VALID,0,VALID,20.3253,VALID,134,VALID,0.177344,
2010-04-08, 03:30:04,VALID,918.325,VALID,0,VALID,97.1071,VALID,0,VALID,20.3253,VALID,134,VALID,0.160547,
2010-04-08, 03:31:04,VALID,918.326,VALID,0,VALID,97.1147,VALID,0,VALID,20.3253,VALID,134,VALID,0.0128906,
2010-04-08, 03:32:04,VALID,918.338,VALID,0,VALID,97.1376,VALID,0.107441,VALID,20.3253,VALID,134,VALID,0,
2010-04-08, 03:33:04,VALID,918.331,VALID,0,VALID,97.1299,VALID,0,VALID,20.3058,VALID,134,VALID,0,
2010-04-08, 03:34:04,VALID,918.334,VALID,0,VALID,97.1299,VALID,0,VALID,20.3058,VALID,134,VALID,0,
2010-04-08, 03:35:04,VALID,918.341,VALID,0,VALID,97.1452,VALID,0,VALID,20.2863,VALID,134,VALID,0,
2010-04-08, 03:36:04,VALID,918.349,VALID,0,VALID,97.1528,VALID,0.107441,VALID,20.3058,VALID,134,VALID,0.147656,
2010-04-08, 03:37:04,VALID,918.347,VALID,0,VALID,97.1681,VALID,0.107441,VALID,20.2863,VALID,134,VALID,0.244922,
2010-04-08, 03:38:04,VALID,918.334,VALID,0,VALID,97.1681,VALID,0,VALID,20.2863,VALID,134,VALID,0.274609,
2010-04-08, 03:39:04,VALID,918.287,VALID,0,VALID,97.1681,VALID,0.107441,VALID,20.2863,VALID,134,VALID,0.0628906,
2010-04-08, 03:40:04,VALID,918.324,VALID,0,VALID,97.1833,VALID,0,VALID,20.2668,VALID,134,VALID,0.226563,
2010-04-08, 03:41:04,VALID,918.331,VALID,0,VALID,97.1833,VALID,0.107441,VALID,20.2473,VALID,134,VALID,0.457812,